Keene, NH

12:47 AM EDT on October 17, 2017 (GMT -0400)
Dillant-Hopkins

Weather History for KEEN - March, 2013

Change the Weather History Date:

Saturday, March 2, 2013

  Actual Average Record
Temperature  
Mean Temperature 34 °F -  
Max Temperature 37 °F 39 °F 59 °F (1991)
Min Temperature 30 °F 17 °F -13 °F (1967)
Degree Days  
Heating Degree Days 32    
Moisture  
Dew Point 23 °F    
Average Humidity 65    
Maximum Humidity 75    
Minimum Humidity 52    
Precipitation  
Precipitation 0.00 in - - ()
Sea Level Pressure  
Sea Level Pressure 29.68 in    
Wind  
Wind Speed 8 mph (NNW)    
Max Wind Speed 16 mph    
Max Gust Speed 20 mph    
Visibility 10 miles    
Events      
Averages and records for this station are not official NWS values.
T = Trace of Precipitation, MM = Missing Value Source: NWS Daily Summary

Daily Weather History Graph

Daily Weather History Graph

Search for Another Location

Airport or City:

Trip Planner

Search our weather history database for the weather conditions in past years. The results will help you decide how hot, cold, wet, or windy it might be!

Date:

Astronomy

Mar. 02, 2013 Rise Set
Actual Time 6:22 AM EST 5:40 PM EST
Civil Twilight 5:54 AM EST 6:08 PM EST
Nautical Twilight 5:21 AM EST 6:41 PM EST
Astronomical Twilight 4:48 AM EST 7:14 PM EST
Moon 11:25 PM EST (3/2) 8:40 AM EST (3/2)
Length of Visible Light 12h 13m
Length of Day
11h 17m
Waning Gibbous, 74% of the Moon is Illuminated
Mar 2
Waning Gibbous
Mar 4
Last Quarter
Mar 11
New
Mar 19
First Quarter
Mar 27
Full

Hourly Weather History & Observations

Time (EST) Temp. Windchill Dew Point Humidity Pressure Visibility Wind Dir Wind Speed Gust Speed Precip Events Conditions
12:15 AM 33.8 °F 28.6 °F 23.0 °F 65% 29.70 in 10.0 mi NNW 5.8 mph - N/A   Overcast
12:35 AM 33.8 °F 28.6 °F 23.0 °F 65% 29.70 in 10.0 mi North 5.8 mph - N/A   Overcast
1:15 AM 33.8 °F 26.4 °F 23.0 °F 65% 29.70 in 10.0 mi NNW 9.2 mph - N/A   Overcast
1:35 AM 33.8 °F 28.6 °F 23.0 °F 65% 29.69 in 10.0 mi North 5.8 mph - N/A   Overcast
1:55 AM 33.8 °F 27.7 °F 23.0 °F 65% 29.69 in 10.0 mi North 6.9 mph - N/A   Overcast
2:15 AM 33.8 °F 27.7 °F 23.0 °F 65% 29.69 in 10.0 mi North 6.9 mph - N/A   Overcast
2:35 AM 33.8 °F 29.6 °F 23.0 °F 65% 29.69 in 10.0 mi NNW 4.6 mph - N/A   Overcast
2:55 AM 33.8 °F 29.6 °F 23.0 °F 65% 29.69 in 10.0 mi North 4.6 mph - N/A   Overcast
3:35 AM 33.8 °F 30.8 °F 23.0 °F 65% 29.69 in 10.0 mi North 3.5 mph - N/A   Overcast
3:55 AM 32.0 °F 26.4 °F 24.8 °F 75% 29.69 in 10.0 mi North 5.8 mph - N/A   Overcast
4:15 AM 32.0 °F 25.6 °F 23.0 °F 69% 29.68 in 10.0 mi NNW 6.9 mph - N/A   Overcast
4:35 AM 33.8 °F 28.6 °F 23.0 °F 65% 29.68 in 10.0 mi NNW 5.8 mph - N/A   Overcast
4:55 AM 33.8 °F 30.8 °F 23.0 °F 65% 29.68 in 10.0 mi NNW 3.5 mph - N/A   Overcast
5:15 AM 33.8 °F 29.6 °F 23.0 °F 65% 29.68 in 10.0 mi NNW 4.6 mph - N/A   Overcast
5:35 AM 33.8 °F 26.4 °F 23.0 °F 65% 29.68 in 10.0 mi North 9.2 mph - N/A   Overcast
6:15 AM 33.8 °F 29.6 °F 23.0 °F 65% 29.68 in 10.0 mi North 4.6 mph - N/A   Overcast
6:55 AM 33.8 °F 27.7 °F 23.0 °F 65% 29.68 in 10.0 mi North 6.9 mph - N/A   Overcast
7:35 AM 33.8 °F 27.0 °F 24.8 °F 70% 29.69 in 10.0 mi North 8.1 mph - N/A   Overcast
7:55 AM 33.8 °F 25.8 °F 24.8 °F 70% 29.69 in 10.0 mi North 10.4 mph - N/A   Overcast
8:55 AM 33.8 °F 27.7 °F 24.8 °F 70% 29.69 in 10.0 mi NNW 6.9 mph - N/A   Overcast
9:15 AM 33.8 °F 27.0 °F 24.8 °F 70% 29.69 in 10.0 mi North 8.1 mph - N/A   Overcast
9:35 AM 35.6 °F 28.6 °F 24.8 °F 65% 29.69 in 10.0 mi North 9.2 mph - N/A   Overcast
9:55 AM 35.6 °F 26.6 °F 23.0 °F 60% 29.69 in 10.0 mi NNW 13.8 mph - N/A   Overcast
10:15 AM 35.6 °F 28.0 °F 23.0 °F 60% 29.69 in 10.0 mi North 10.4 mph - N/A   Overcast
10:35 AM 35.6 °F 29.2 °F 23.0 °F 60% 29.69 in 10.0 mi North 8.1 mph - N/A   Overcast
11:15 AM 35.6 °F 27.1 °F 24.8 °F 65% 29.68 in 10.0 mi North 12.7 mph - N/A   Overcast
11:35 AM 35.6 °F 27.1 °F 24.8 °F 65% 29.68 in 10.0 mi North 12.7 mph - N/A   Overcast
11:55 AM 35.6 °F 28.0 °F 24.8 °F 65% 29.67 in 10.0 mi North 10.4 mph - N/A   Overcast
12:15 PM 35.6 °F 28.0 °F 24.8 °F 65% 29.67 in 10.0 mi North 10.4 mph - N/A   Overcast
12:35 PM 35.6 °F 27.1 °F 24.8 °F 65% 29.66 in 10.0 mi North 12.7 mph - N/A   Overcast
12:55 PM 37.4 °F 29.3 °F 24.8 °F 60% 29.65 in 10.0 mi North 12.7 mph - N/A   Overcast
1:15 PM 37.4 °F 29.8 °F 24.8 °F 60% 29.65 in 10.0 mi NNW 11.5 mph 16.1 mph N/A   Overcast
1:55 PM 37.4 °F 29.3 °F 24.8 °F 60% 29.65 in 10.0 mi North 12.7 mph - N/A   Overcast
2:15 PM 37.4 °F 31.4 °F 24.8 °F 60% 29.65 in 10.0 mi NNW 8.1 mph - N/A   Overcast
2:35 PM 37.4 °F 30.8 °F 24.8 °F 60% 29.64 in 10.0 mi NNW 9.2 mph 16.1 mph N/A   Overcast
2:55 PM 35.6 °F 26.6 °F 24.8 °F 65% 29.65 in 10.0 mi North 13.8 mph - N/A   Overcast
3:15 PM 37.4 °F 29.3 °F 24.8 °F 60% 29.65 in 10.0 mi NNW 12.7 mph - N/A   Overcast
3:35 PM 37.4 °F 29.8 °F 23.0 °F 56% 29.65 in 10.0 mi North 11.5 mph - N/A   Overcast
3:55 PM 37.4 °F 29.3 °F 21.2 °F 52% 29.65 in 10.0 mi NNW 12.7 mph 19.6 mph N/A   Mostly Cloudy
4:35 PM 37.4 °F 32.1 °F 24.8 °F 60% 29.65 in 10.0 mi NNW 6.9 mph - N/A   Overcast
4:55 PM 37.4 °F 30.3 °F 23.0 °F 56% 29.65 in 10.0 mi NNW 10.4 mph - N/A   Overcast
5:15 PM 35.6 °F 30.7 °F 24.8 °F 65% 29.66 in 10.0 mi NNW 5.8 mph - N/A   Overcast
5:35 PM 35.6 °F 28.6 °F 23.0 °F 60% 29.67 in 10.0 mi NNW 9.2 mph - N/A   Overcast
6:15 PM 33.8 °F 25.8 °F 23.0 °F 65% 29.68 in 10.0 mi NNW 10.4 mph - N/A   Overcast
6:35 PM 33.8 °F 27.0 °F 23.0 °F 65% 29.68 in 10.0 mi North 8.1 mph - N/A   Overcast
6:55 PM 33.8 °F 27.0 °F 23.0 °F 65% 29.68 in 10.0 mi North 8.1 mph - N/A   Overcast
7:15 PM 33.8 °F 27.7 °F 23.0 °F 65% 29.68 in 10.0 mi NNW 6.9 mph - N/A   Overcast
7:35 PM 33.8 °F 26.4 °F 23.0 °F 65% 29.68 in 10.0 mi NNW 9.2 mph - N/A   Overcast
8:15 PM 32.0 °F 25.6 °F 23.0 °F 69% 29.69 in 10.0 mi NNW 6.9 mph - N/A   Overcast
8:35 PM 32.0 °F 24.8 °F 23.0 °F 69% 29.70 in 10.0 mi NNW 8.1 mph - N/A   Overcast
8:55 PM 32.0 °F 25.6 °F 21.2 °F 64% 29.70 in 10.0 mi NNW 6.9 mph - N/A   Overcast
9:35 PM 30.2 °F 21.9 °F 21.2 °F 69% 29.70 in 10.0 mi NNW 9.2 mph - N/A   Overcast
9:55 PM 30.2 °F 21.9 °F 21.2 °F 69% 29.70 in 10.0 mi North 9.2 mph - N/A   Overcast
10:15 PM 30.2 °F 18.9 °F 19.4 °F 64% 29.69 in 10.0 mi North 16.1 mph - N/A   Overcast
10:35 PM 30.2 °F 20.8 °F 21.2 °F 69% 29.68 in 10.0 mi North 11.5 mph - N/A   Overcast
10:55 PM 30.2 °F 20.8 °F 21.2 °F 69% 29.68 in 10.0 mi North 11.5 mph - N/A   Overcast
11:15 PM 30.2 °F 21.3 °F 21.2 °F 69% 29.68 in 10.0 mi North 10.4 mph - N/A   Overcast
11:55 PM 30.2 °F 21.9 °F 19.4 °F 64% 29.67 in 10.0 mi North 9.2 mph - N/A   Overcast